Faith, SD

7:26 PM MST on December 10, 2017 (GMT -0700)
Faith

Weather History for KD07 - June, 2013

Change the Weather History Date:

Sunday, June 2, 2013

  Actual Average Record
Temperature  
Mean Temperature 54 °F 60 °F  
Max Temperature 66 °F 72 °F 93 °F (2017)
Min Temperature 42 °F 48 °F 35 °F (1998)
Degree Days  
Heating Degree Days 11 6  
Month to date heating degree days 21 12  
Since 1 June heating degree days 21 12  
Since 1 July heating degree days 7555 7631  
Cooling Degree Days 0 1  
Month to date cooling degree days 0 2  
Year to date cooling degree days 13 14  
Since 1 June cooling degree days 0 2  
Growing Degree Days 4 (Base 50)    
Moisture  
Dew Point 44 °F    
Average Humidity 69    
Maximum Humidity 89    
Minimum Humidity 48    
Precipitation  
Precipitation 0.00 in 0.08 in 0.86 in (2008)
Month to date precipitation 0.00 0.16  
Year to date precipitation 7.64 6.46  
Sea Level Pressure  
Sea Level Pressure 30.02 in    
Wind  
Wind Speed 12 mph (SE)    
Max Wind Speed 25 mph    
Max Gust Speed 32 mph    
T = Trace of Precipitation, MM = Missing Value Source: NWS Daily Summary

Daily Weather History Graph

Daily Weather History Graph

Search for Another Location

Airport or City:

Trip Planner

Search our weather history database for the weather conditions in past years. The results will help you decide how hot, cold, wet, or windy it might be!

Date:

Astronomy

Jun. 02, 2013 Rise Set
Actual Time 5:03 AM MDT 8:28 PM MDT
Civil Twilight 4:27 AM MDT 9:05 PM MDT
Nautical Twilight 3:39 AM MDT 9:53 PM MDT
Astronomical Twilight 2:38 AM MDT 10:54 PM MDT
Moon 1:46 AM MDT (6/2) 2:48 PM MDT (6/2)
Length of Visible Light 16h 38m
Length of Day
15h 25m
Waning Crescent, 30% of the Moon is Illuminated
Jun 2
Waning Crescent
Jun 8
New
Jun 16
First Quarter
Jun 23
Full
Jun 29
Last Quarter

Hourly Weather History & Observations

Time (MDT) Temp. Windchill Dew Point Humidity Pressure Visibility Wind Dir Wind Speed Gust Speed Precip Events Conditions
12:56 AM 51.1 °F - 37.9 °F 61% 30.14 in - ESE 6.9 mph - N/A   Unknown
1:56 AM 48.9 °F - 41.0 °F 74% 30.14 in - SE 10.4 mph - N/A   Unknown
2:56 AM 42.1 °F 37.7 °F 39.9 °F 92% 30.14 in - South 6.9 mph - N/A   Unknown
3:56 AM 43.0 °F 38.8 °F 39.9 °F 89% 30.14 in - South 6.9 mph - N/A   Unknown
4:56 AM 42.1 °F 36.6 °F 39.9 °F 92% 30.13 in - South 9.2 mph - N/A   Unknown
5:56 AM 46.0 °F 41.9 °F 43.0 °F 89% 30.13 in - South 8.1 mph - N/A   Unknown
6:56 AM 50.0 °F - 45.0 °F 83% 30.12 in - SSE 5.8 mph - N/A   Unknown
7:56 AM 54.0 °F - 45.0 °F 72% 30.11 in - South 8.1 mph - N/A   Unknown
8:56 AM 57.9 °F - 45.0 °F 62% 30.09 in - SSE 10.4 mph - N/A   Unknown
9:56 AM 59.0 °F - 43.0 °F 55% 30.08 in - SSE 11.5 mph - N/A   Unknown
10:56 AM 61.0 °F - 43.0 °F 52% 30.06 in - SSE 10.4 mph - N/A   Unknown
11:56 AM 62.1 °F - 43.0 °F 50% 30.04 in - ESE 10.4 mph - N/A   Unknown
12:56 PM 62.1 °F - 45.0 °F 53% 30.02 in - ESE 13.8 mph 19.6 mph N/A   Unknown
1:56 PM 64.0 °F - 46.0 °F 52% 30.00 in - ESE 15.0 mph 21.9 mph N/A   Unknown
2:56 PM 64.9 °F - 46.9 °F 52% 29.99 in - SE 13.8 mph 23.0 mph N/A   Unknown
3:56 PM 64.0 °F - 46.9 °F 54% 29.97 in - SE 11.5 mph 23.0 mph N/A   Unknown
4:56 PM 66.0 °F - 46.9 °F 50% 29.95 in - SE 17.3 mph 24.2 mph N/A   Unknown
5:56 PM 64.9 °F - 46.9 °F 52% 29.93 in - ESE 16.1 mph - N/A   Unknown
6:56 PM 63.0 °F - 48.0 °F 58% 29.91 in - East 15.0 mph - N/A   Unknown
7:56 PM 59.0 °F - 48.0 °F 67% 29.91 in - East 15.0 mph 23.0 mph N/A   Unknown
8:56 PM 55.9 °F - 48.0 °F 75% 29.91 in - East 13.8 mph - N/A   Unknown
9:56 PM 55.0 °F - 46.9 °F 74% 29.91 in - ESE 13.8 mph 21.9 mph N/A   Unknown
10:56 PM 54.0 °F - 44.1 °F 69% 29.90 in - ESE 16.1 mph 24.2 mph N/A   Unknown
11:56 PM 53.1 °F - 45.0 °F 74% 29.87 in - ESE 17.3 mph 24.2 mph N/A   Unknown